SCP
0 0 0 0 0 0 0 0 0 0 0 0 0 0 0 0 0 0 0 0 0 0 0 0 0 0 0 0 0 0 0 0 0 0 0 0 0 0 0 0 0 0 0
0 0 0 0 0 0 0 0 0 0 0 0 0 0 0 0 0 0 0 0 0 0 0 0 0 0 0 0 0 0 0 0 0 0 0 0 0 0 0 0 0 0 0
0 0 0 0 0 0 0 0 0 0 0 0 0 0 0 0 0 0 0 0 0 0 0 0 0 0 0 0 0 0 0 0 0 0 0 0 0 0 0 0 0 0 0
0 0 0 0 0 0 0 0 0 0 0 0 0 0 0 0 0 0 0 0 0 0 0 0 0 0 0 0 0 0 0 0 0 0 0 0 0 0 0 0 0 0 0
0 0 0 0 0 0 0 0 0 0 0 0 0 0 0 0 0 0 0 0 0 0 0 0 0 0 0 0 0 0 0 0 0 0 0 0 0 0 0 0 0 0 0
0 0 0 0 0 0 0 0 0 0 0 0 0 0 0 0 0 0 0 0 0 0 0 0 0 0 0 0 0 0 0 0 0 0 0 0 0 0 0 0 0 0 -0
0 0 0 0 0 0 0 0 0 0 0 0 0 0 0 0 0 0 0 0 0 0 0 0 0 0 0 0 0 0 0 0 0 0 0 0 0 0 0 0 0 0 0
0 0 0 0 0 0 0 0 0 0 0 0 0 0 0 0 0 0 0 0 0 0 0 0 0 0 0 0 0 0 0 0 0 0 0 0 0 0 0 0 0 0 0
0 0 0 0 0 0 0 0 0 0 0 0 0 0 0 0 0 0 0 0 0 0 0 0 0 0 0 0 0 0 0 0 0 0 0 0 0 0 0 0 0 0 0
0 0 0 0 0 0 0 0 0 0 0 0 0 0 0 0 0 0 0 0 0 0 0 0 0 0 0 0 0 0 0 0 0 0 0 0 0 0 0 0 0 0 0
0 0 0 0 0 0 0 0 0 0 0 0 0 0 0 0 0 0 0 0 0 0 0 0 0 0 0 0 0 0 0 0 0 0 0 0 0 0 0 0 0 0 0
0 0 0 0 0 0 0 0 0 0 0 0 0 0 0 0 0 0 0 0 0 0 0 0 0 0 0 0 0 0 0 0 0 0 0 0 0 0 0 0 0 0 0
0 0 0 0 0 0 0 0 0 0 0 0 0 0 0 0 0 0 0 0 0 0 0 0 0 0 0 0 0 0 0 0 0 0 0 0 0 0 0 0 0 0 0
0 0 0 0 0 0 0 0 0 0 0 0 0 0 0 0 0 0 0 0 0 0 0 0 0 0 0 0 0 0 0 0 0 0 0 0 0 0 0 0 0 0 0
0 0 0 0 0 0 0 0 0 0 0 0 0 0 0 0 0 0 0 0 0 0 0 0 0 0 0 0 0 0 0 0 0 0 0 0 0 0 0 0 0 0 0
0 0 0 0 0 0 0 0 0 0 0 0 0 0 0 0 0 0 0 0 0 0 0 0 0 0 0 0 0 0 0 0 0 0 0 0 0 0 0 0 0 0 0
0 0 0 0 0 0 0 0 0 0 0 0 0 0 0 0 0 0 0 0 0 0 0 0 0 0 0 0 0 0 0 0 0 0 0 0 0 0 0 0 0 0 0
0 0 0 0 0 0 0 0 0 0 0 0 0 0 0 0 0 0 0 0 0 0 0 0 0 0 0 0 0 0 0 0 0 0 0 0 0 0 0 0 0 0 0
0 0 0 0 0 0 0 0 0 0 0 0 0 0 0 0 0 0 0 0 0 0 0 0 0 0 0 0 0 0 0 0 0 0 0 0 0 0 0 0 0 0 0
0 0 0 0 0 0 0 0 0 0 0 0 0 0 0 0 0 0 0 0 0 0 0 0 0 0 0 0 0 0 0 0 0 0 0 0 0 0 0 0 0 0 0
0 0 0 0 0 0 0 0 0 0 0 0 0 0 0 0 0 0 0 0 0 0 0 0 0 0 0 0 0 0 0 0 0 0 0 0 0 0 0 0 0 0 0
0 0 0 0 0 0 0 0 0 0 0 0 0 0 0 0 0 0 0 0 0 0 0 0 0 0 0 0 0 0 0 0 0 0 0 0 0 0 0 0 0 0 0
0 0 0 0 0 0 0 0 0 0 0 0 0 0 0 0 0 0 0 0 0 0 0 0 0 0 0 0 0 0 0 0 0 0 0 0 0 0 0 0 0 0 0
0 0 0 0 0 0 0 0 0 0 0 0 0 0 0 0 0 0 0 0 0 0 0 0 0 0 0 0 0 0 0 0 0 0 0 0 0 0 0 0 0 0 0
0 0 0 0 0 0 0 0 0 0 0 0 0 0 0 0 0 0 0 0 0 0 0 0 0 0 0 0 0 0 0 0 0 0 0 0 0 0 0 0 0 0 0
0 0 0 0 0 0 0 0 0 0 0 0 0 0 0 0 0 0 0 0 0 0 0 0 0 0 0 0 0 0 0 0 0 0 0 0 0 0 0 0 0 0 0
Wind_Speed_500mb
35 36 36 35 34 32 31 31 32 33 34 34 34 33 33 32 32 32 32 31 32 32 31 29 29 28 26 24 22 21 20 21 23 25 27 30 36 38 39 40 40 38 40
36 39 40 42 42 39 36 35 35 37 38 37 37 37 37 36 36 35 35 35 34 33 31 28 26 24 23 22 22 23 24 25 28 31 34 37 39 42 43 44 42 41 42
39 42 45 46 46 44 42 40 39 39 39 40 40 39 39 39 39 38 37 36 35 34 32 29 28 26 26 26 26 28 29 30 32 35 39 40 44 44 44 44 44 41 40
43 44 47 49 48 47 46 45 42 41 42 44 44 43 43 42 42 41 38 36 34 32 30 29 28 28 29 29 30 30 30 32 33 36 39 40 42 44 47 52 49 46 45
53 51 51 49 49 50 50 48 46 46 47 47 47 47 47 47 45 42 39 36 34 33 31 30 29 30 32 33 32 33 33 34 34 34 37 38 40 43 46 49 52 54 46
55 55 54 54 55 55 54 54 53 51 50 50 49 47 46 46 46 44 40 37 36 35 34 32 32 33 33 32 32 34 36 34 35 33 36 39 41 43 41 43 50 55 57
53 52 53 59 63 62 60 60 58 56 54 52 51 50 48 47 47 44 41 39 39 37 35 34 33 33 33 30 29 32 31 34 37 37 36 40 42 42 42 42 44 49 54
54 54 55 57 62 64 66 65 62 59 56 52 50 49 48 48 49 42 38 38 39 38 36 33 29 29 32 30 26 28 28 31 34 34 33 32 35 39 41 42 45 50 50
58 55 51 51 57 60 65 64 63 59 57 54 52 50 48 45 45 39 35 36 38 34 31 28 26 27 34 33 29 26 27 29 33 31 30 31 33 37 40 43 45 50 55
51 49 48 46 48 50 52 56 58 58 57 55 54 51 48 46 49 40 37 36 34 30 29 27 27 29 33 34 30 28 28 31 30 28 28 31 32 33 39 41 45 44 47
45 44 44 43 41 42 45 52 56 58 57 56 52 49 46 44 45 41 35 37 34 29 29 32 30 32 35 34 32 32 33 36 30 30 28 30 32 35 36 38 41 41 42
42 42 41 42 46 48 49 52 55 59 57 55 54 51 48 45 44 48 37 37 35 34 31 31 31 33 35 34 40 41 39 32 32 31 31 30 31 33 36 38 39 40 40
41 45 49 51 53 53 55 57 59 60 59 59 56 55 51 48 48 49 43 40 39 31 33 33 35 33 36 41 39 39 35 34 34 34 35 34 34 34 37 40 41 42 39
49 51 53 55 54 52 53 53 56 61 62 61 57 56 51 50 49 47 45 43 39 33 32 36 32 37 42 39 35 37 36 35 35 36 37 38 38 38 39 43 44 46 46
55 56 56 54 54 52 53 52 53 54 54 52 53 49 48 50 48 44 40 40 37 37 39 37 39 41 38 36 36 37 36 36 37 39 39 40 41 42 41 44 46 48 48
61 61 61 58 55 53 51 52 54 48 49 49 50 44 39 39 41 42 43 43 39 37 45 40 38 37 37 38 38 38 38 38 39 41 41 42 43 44 45 45 47 48 51
61 57 54 53 53 54 54 56 54 49 50 48 48 43 42 43 45 49 41 38 32 38 50 43 38 39 40 42 41 39 37 37 41 42 42 43 45 46 48 48 48 51 53
58 56 53 51 52 53 54 53 50 50 49 47 36 41 46 47 47 40 39 37 40 47 46 42 42 44 44 44 44 42 39 40 42 44 44 45 47 50 51 51 51 55 56
55 55 53 52 51 52 54 49 48 49 49 48 47 47 46 40 38 39 39 41 42 45 44 45 46 47 47 46 45 44 44 44 45 46 46 46 47 51 53 54 55 55 57
56 54 50 49 51 52 51 48 50 50 49 47 46 44 39 37 36 35 36 39 42 43 44 47 48 48 48 48 47 47 48 48 48 48 47 48 48 52 56 56 56 58 58
54 52 50 48 47 46 45 49 50 47 45 44 42 39 37 37 36 37 37 40 42 44 46 49 48 49 49 49 49 49 51 52 51 50 50 49 51 55 55 58 59 59 61
45 44 42 42 42 43 44 43 42 41 40 39 38 37 37 37 35 36 39 42 44 45 47 50 51 50 49 50 50 52 54 54 51 51 52 52 53 55 57 59 60 61 62
38 39 38 38 38 38 37 38 38 38 37 35 35 35 35 36 37 39 41 42 44 45 47 51 51 49 48 49 51 54 56 54 52 53 55 55 56 58 59 62 62 63 63
34 35 34 35 37 38 38 37 34 34 34 33 33 34 35 37 39 42 43 43 45 46 48 51 52 51 49 50 52 54 56 55 56 56 58 59 60 61 63 64 64 64 63
32 33 34 33 33 34 32 32 32 31 31 31 31 34 37 40 42 42 43 45 47 48 46 49 51 51 52 51 52 53 55 57 59 58 61 64 65 65 66 66 65 64 61
31 31 31 32 31 32 30 30 29 29 29 31 34 37 39 41 43 45 46 48 48 47 47 46 47 50 51 53 53 56 58 59 60 62 65 66 68 67 65 64 61 60 56
Wind_Direction_500mb
239 234 231 229 228 229 234 239 244 248 254 259 260 264 267 271 276 281 285 289 291 291 291 291 288 285 281 273 264 255 250 252 260 271 278 282 287 293 298 302 305 311 313
240 237 232 232 233 236 241 245 250 253 256 258 262 266 269 273 276 279 281 283 284 284 284 282 280 276 268 261 257 258 261 267 272 275 279 285 292 298 304 308 312 318 318
246 241 237 239 240 242 246 250 254 259 263 264 264 267 270 272 274 276 277 277 276 274 272 270 266 261 257 257 261 266 273 279 285 290 293 297 299 300 303 306 309 315 321
249 247 245 246 248 250 252 254 258 261 263 265 267 267 267 268 269 267 266 266 266 266 263 260 257 257 260 265 270 276 283 288 292 294 297 300 302 305 311 315 317 327 332
250 249 249 250 251 251 253 257 259 261 262 262 263 264 263 262 262 263 264 264 263 259 255 254 257 264 270 274 280 286 291 293 294 296 298 302 305 310 316 322 324 327 333
254 254 255 253 253 254 254 256 258 260 261 261 260 260 260 260 259 261 260 258 257 255 254 256 260 266 273 281 288 292 294 297 300 303 305 307 310 314 320 325 326 327 333
257 254 252 252 253 254 255 255 256 257 258 259 260 260 260 259 260 262 261 258 254 253 254 257 260 266 272 277 287 292 296 298 299 302 305 306 309 314 320 322 322 325 327
257 253 251 251 253 252 251 252 253 253 255 257 259 258 258 257 258 255 252 250 246 244 245 251 258 267 274 280 285 288 292 292 293 297 299 301 304 310 316 319 321 321 322
256 258 258 254 252 250 250 252 252 253 254 254 252 248 247 247 251 247 245 241 242 244 246 250 255 266 273 284 289 293 294 292 293 297 297 302 305 308 316 318 316 319 320
260 263 262 259 258 256 254 251 250 248 247 246 245 244 242 241 248 242 242 243 243 245 247 254 262 266 277 288 300 303 297 288 291 292 293 296 302 307 310 312 314 318 323
253 252 255 258 258 256 251 246 245 244 244 243 244 243 241 240 244 245 239 242 239 235 253 265 270 273 281 292 296 295 292 291 289 288 292 295 300 304 305 307 311 315 320
246 249 248 250 252 252 249 246 240 238 238 239 240 239 237 236 236 246 238 238 234 250 260 261 264 270 282 290 298 296 291 290 289 291 293 293 297 300 302 305 307 311 315
249 252 251 252 252 251 247 243 237 236 236 236 236 236 234 234 231 233 242 239 246 254 249 256 269 278 284 287 288 286 286 286 288 291 293 297 300 302 302 303 305 306 310
258 256 253 251 251 251 248 243 240 237 234 232 230 234 233 231 231 231 235 239 248 247 257 263 268 277 280 282 282 283 284 284 286 290 295 299 300 302 304 304 305 307 308
261 259 257 256 254 250 246 245 242 241 242 243 241 235 234 233 233 234 234 242 245 255 258 262 276 274 279 279 279 278 279 281 285 288 293 297 300 302 303 304 306 308 311
259 254 252 249 247 245 242 236 232 228 236 235 233 232 226 227 227 228 238 241 250 250 262 264 268 275 280 280 278 276 276 278 282 287 292 295 297 300 301 302 305 307 311
257 255 252 249 245 241 236 232 231 225 226 230 230 224 219 219 224 234 238 247 245 241 259 267 274 279 281 279 278 275 274 276 279 285 290 294 296 297 298 301 305 307 309
252 249 245 246 245 241 234 232 229 226 222 217 210 216 219 221 236 234 238 236 238 239 261 271 276 278 279 278 277 276 276 278 283 288 291 293 294 295 297 301 304 306 308
252 250 247 242 237 235 233 228 225 223 219 218 218 222 229 231 229 232 238 244 252 259 266 271 274 274 275 274 276 276 278 280 283 285 288 289 291 293 296 299 301 304 307
248 245 243 240 236 231 228 224 221 218 217 223 228 227 228 229 235 243 250 257 262 267 271 272 273 272 274 276 276 277 278 281 284 285 288 288 290 290 293 297 299 302 303
244 244 241 236 233 230 227 222 219 218 221 226 227 232 233 238 243 250 258 265 268 269 271 272 273 274 274 274 276 278 279 281 284 286 286 287 286 288 292 294 297 299 300
241 240 237 232 228 222 217 216 220 223 221 223 224 230 239 247 254 260 263 266 269 271 273 274 275 275 275 276 277 277 278 281 284 285 284 285 287 289 291 293 295 297 298
234 232 228 224 218 216 217 217 218 222 223 226 233 239 247 255 261 265 268 270 271 273 274 275 276 275 275 275 275 277 280 283 285 284 285 287 288 290 290 292 294 295 297
227 224 220 219 219 216 217 219 220 222 228 234 243 251 257 262 267 271 273 276 278 280 280 279 279 278 276 275 275 277 281 283 284 285 286 287 289 290 290 291 293 295 296
219 215 217 218 223 223 222 223 226 231 238 244 252 259 265 269 272 275 279 282 281 279 276 274 275 277 277 278 279 281 282 283 285 286 287 288 289 289 290 290 291 292 293
219 221 222 223 222 226 229 235 239 245 252 260 263 266 270 275 281 284 283 282 281 279 277 275 275 277 279 281 283 283 283 284 285 287 287 286 287 288 287 287 288 289 291
Wind_Speed_850mb
35 36 36 35 34 32 31 31 32 33 34 34 34 33 33 32 32 32 32 31 32 32 31 29 29 28 26 24 22 21 20 21 23 25 27 30 36 38 39 40 40 38 40
36 39 40 42 42 39 36 35 35 37 38 37 37 37 37 36 36 35 35 35 34 33 31 28 26 24 23 22 22 23 24 25 28 31 34 37 39 42 43 44 42 41 42
39 42 45 46 46 44 42 40 39 39 39 40 40 39 39 39 39 38 37 36 35 34 32 29 28 26 26 26 26 28 29 30 32 35 39 40 44 44 44 44 44 41 40
43 44 47 49 48 47 46 45 42 41 42 44 44 43 43 42 42 41 38 36 34 32 30 29 28 28 29 29 30 30 30 32 33 36 39 40 42 44 47 52 49 46 45
53 51 51 49 49 50 50 48 46 46 47 47 47 47 47 47 45 42 39 36 34 33 31 30 29 30 32 33 32 33 33 34 34 34 37 38 40 43 46 49 52 54 46
55 55 54 54 55 55 54 54 53 51 50 50 49 47 46 46 46 44 40 37 36 35 34 32 32 33 33 32 32 34 36 34 35 33 36 39 41 43 41 43 50 55 57
53 52 53 59 63 62 60 60 58 56 54 52 51 50 48 47 47 44 41 39 39 37 35 34 33 33 33 30 29 32 31 34 37 37 36 40 42 42 42 42 44 49 54
54 54 55 57 62 64 66 65 62 59 56 52 50 49 48 48 49 42 38 38 39 38 36 33 29 29 32 30 26 28 28 31 34 34 33 32 35 39 41 42 45 50 50
58 55 51 51 57 60 65 64 63 59 57 54 52 50 48 45 45 39 35 36 38 34 31 28 26 27 34 33 29 26 27 29 33 31 30 31 33 37 40 43 45 50 55
51 49 48 46 48 50 52 56 58 58 57 55 54 51 48 46 49 40 37 36 34 30 29 27 27 29 33 34 30 28 28 31 30 28 28 31 32 33 39 41 45 44 47
45 44 44 43 41 42 45 52 56 58 57 56 52 49 46 44 45 41 35 37 34 29 29 32 30 32 35 34 32 32 33 36 30 30 28 30 32 35 36 38 41 41 42
42 42 41 42 46 48 49 52 55 59 57 55 54 51 48 45 44 48 37 37 35 34 31 31 31 33 35 34 40 41 39 32 32 31 31 30 31 33 36 38 39 40 40
41 45 49 51 53 53 55 57 59 60 59 59 56 55 51 48 48 49 43 40 39 31 33 33 35 33 36 41 39 39 35 34 34 34 35 34 34 34 37 40 41 42 39
49 51 53 55 54 52 53 53 56 61 62 61 57 56 51 50 49 47 45 43 39 33 32 36 32 37 42 39 35 37 36 35 35 36 37 38 38 38 39 43 44 46 46
55 56 56 54 54 52 53 52 53 54 54 52 53 49 48 50 48 44 40 40 37 37 39 37 39 41 38 36 36 37 36 36 37 39 39 40 41 42 41 44 46 48 48
61 61 61 58 55 53 51 52 54 48 49 49 50 44 39 39 41 42 43 43 39 37 45 40 38 37 37 38 38 38 38 38 39 41 41 42 43 44 45 45 47 48 51
61 57 54 53 53 54 54 56 54 49 50 48 48 43 42 43 45 49 41 38 32 38 50 43 38 39 40 42 41 39 37 37 41 42 42 43 45 46 48 48 48 51 53
58 56 53 51 52 53 54 53 50 50 49 47 36 41 46 47 47 40 39 37 40 47 46 42 42 44 44 44 44 42 39 40 42 44 44 45 47 50 51 51 51 55 56
55 55 53 52 51 52 54 49 48 49 49 48 47 47 46 40 38 39 39 41 42 45 44 45 46 47 47 46 45 44 44 44 45 46 46 46 47 51 53 54 55 55 57
56 54 50 49 51 52 51 48 50 50 49 47 46 44 39 37 36 35 36 39 42 43 44 47 48 48 48 48 47 47 48 48 48 48 47 48 48 52 56 56 56 58 58
54 52 50 48 47 46 45 49 50 47 45 44 42 39 37 37 36 37 37 40 42 44 46 49 48 49 49 49 49 49 51 52 51 50 50 49 51 55 55 58 59 59 61
45 44 42 42 42 43 44 43 42 41 40 39 38 37 37 37 35 36 39 42 44 45 47 50 51 50 49 50 50 52 54 54 51 51 52 52 53 55 57 59 60 61 62
38 39 38 38 38 38 37 38 38 38 37 35 35 35 35 36 37 39 41 42 44 45 47 51 51 49 48 49 51 54 56 54 52 53 55 55 56 58 59 62 62 63 63
34 35 34 35 37 38 38 37 34 34 34 33 33 34 35 37 39 42 43 43 45 46 48 51 52 51 49 50 52 54 56 55 56 56 58 59 60 61 63 64 64 64 63
32 33 34 33 33 34 32 32 32 31 31 31 31 34 37 40 42 42 43 45 47 48 46 49 51 51 52 51 52 53 55 57 59 58 61 64 65 65 66 66 65 64 61
31 31 31 32 31 32 30 30 29 29 29 31 34 37 39 41 43 45 46 48 48 47 47 46 47 50 51 53 53 56 58 59 60 62 65 66 68 67 65 64 61 60 56
Wind_Direction_850mb
239 234 231 229 228 229 234 239 244 248 254 259 260 264 267 271 276 281 285 289 291 291 291 291 288 285 281 273 264 255 250 252 260 271 278 282 287 293 298 302 305 311 313
240 237 232 232 233 236 241 245 250 253 256 258 262 266 269 273 276 279 281 283 284 284 284 282 280 276 268 261 257 258 261 267 272 275 279 285 292 298 304 308 312 318 318
246 241 237 239 240 242 246 250 254 259 263 264 264 267 270 272 274 276 277 277 276 274 272 270 266 261 257 257 261 266 273 279 285 290 293 297 299 300 303 306 309 315 321
249 247 245 246 248 250 252 254 258 261 263 265 267 267 267 268 269 267 266 266 266 266 263 260 257 257 260 265 270 276 283 288 292 294 297 300 302 305 311 315 317 327 332
250 249 249 250 251 251 253 257 259 261 262 262 263 264 263 262 262 263 264 264 263 259 255 254 257 264 270 274 280 286 291 293 294 296 298 302 305 310 316 322 324 327 333
254 254 255 253 253 254 254 256 258 260 261 261 260 260 260 260 259 261 260 258 257 255 254 256 260 266 273 281 288 292 294 297 300 303 305 307 310 314 320 325 326 327 333
257 254 252 252 253 254 255 255 256 257 258 259 260 260 260 259 260 262 261 258 254 253 254 257 260 266 272 277 287 292 296 298 299 302 305 306 309 314 320 322 322 325 327
257 253 251 251 253 252 251 252 253 253 255 257 259 258 258 257 258 255 252 250 246 244 245 251 258 267 274 280 285 288 292 292 293 297 299 301 304 310 316 319 321 321 322
256 258 258 254 252 250 250 252 252 253 254 254 252 248 247 247 251 247 245 241 242 244 246 250 255 266 273 284 289 293 294 292 293 297 297 302 305 308 316 318 316 319 320
260 263 262 259 258 256 254 251 250 248 247 246 245 244 242 241 248 242 242 243 243 245 247 254 262 266 277 288 300 303 297 288 291 292 293 296 302 307 310 312 314 318 323
253 252 255 258 258 256 251 246 245 244 244 243 244 243 241 240 244 245 239 242 239 235 253 265 270 273 281 292 296 295 292 291 289 288 292 295 300 304 305 307 311 315 320
246 249 248 250 252 252 249 246 240 238 238 239 240 239 237 236 236 246 238 238 234 250 260 261 264 270 282 290 298 296 291 290 289 291 293 293 297 300 302 305 307 311 315
249 252 251 252 252 251 247 243 237 236 236 236 236 236 234 234 231 233 242 239 246 254 249 256 269 278 284 287 288 286 286 286 288 291 293 297 300 302 302 303 305 306 310
258 256 253 251 251 251 248 243 240 237 234 232 230 234 233 231 231 231 235 239 248 247 257 263 268 277 280 282 282 283 284 284 286 290 295 299 300 302 304 304 305 307 308
261 259 257 256 254 250 246 245 242 241 242 243 241 235 234 233 233 234 234 242 245 255 258 262 276 274 279 279 279 278 279 281 285 288 293 297 300 302 303 304 306 308 311
259 254 252 249 247 245 242 236 232 228 236 235 233 232 226 227 227 228 238 241 250 250 262 264 268 275 280 280 278 276 276 278 282 287 292 295 297 300 301 302 305 307 311
257 255 252 249 245 241 236 232 231 225 226 230 230 224 219 219 224 234 238 247 245 241 259 267 274 279 281 279 278 275 274 276 279 285 290 294 296 297 298 301 305 307 309
252 249 245 246 245 241 234 232 229 226 222 217 210 216 219 221 236 234 238 236 238 239 261 271 276 278 279 278 277 276 276 278 283 288 291 293 294 295 297 301 304 306 308
252 250 247 242 237 235 233 228 225 223 219 218 218 222 229 231 229 232 238 244 252 259 266 271 274 274 275 274 276 276 278 280 283 285 288 289 291 293 296 299 301 304 307
248 245 243 240 236 231 228 224 221 218 217 223 228 227 228 229 235 243 250 257 262 267 271 272 273 272 274 276 276 277 278 281 284 285 288 288 290 290 293 297 299 302 303
244 244 241 236 233 230 227 222 219 218 221 226 227 232 233 238 243 250 258 265 268 269 271 272 273 274 274 274 276 278 279 281 284 286 286 287 286 288 292 294 297 299 300
241 240 237 232 228 222 217 216 220 223 221 223 224 230 239 247 254 260 263 266 269 271 273 274 275 275 275 276 277 277 278 281 284 285 284 285 287 289 291 293 295 297 298
234 232 228 224 218 216 217 217 218 222 223 226 233 239 247 255 261 265 268 270 271 273 274 275 276 275 275 275 275 277 280 283 285 284 285 287 288 290 290 292 294 295 297
227 224 220 219 219 216 217 219 220 222 228 234 243 251 257 262 267 271 273 276 278 280 280 279 279 278 276 275 275 277 281 283 284 285 286 287 289 290 290 291 293 295 296
219 215 217 218 223 223 222 223 226 231 238 244 252 259 265 269 272 275 279 282 281 279 276 274 275 277 277 278 279 281 282 283 285 286 287 288 289 289 290 290 291 292 293
219 221 222 223 222 226 229 235 239 245 252 260 263 266 270 275 281 284 283 282 281 279 277 275 275 277 279 281 283 283 283 284 285 287 287 286 287 288 287 287 288 289 291